Regional Weather Roundup
Issued by NWS Glasgow, MT

Home | Current Version | Previous Version | Text Only | Print | Product List | Glossary On
Versions: 1 2 3 4 5 6 7 8 9 10 11 12 13 14 15 16 17 18 19 20 21 22 23 24 25 26 27 28 29 30 31 32 33 34 35 36 37 38 39 40 41 42 43 44 45 46 47 48 49 50
000
ASUS45 KGGW 190915
RWRGGW
HOURLY WEATHER ROUNDUP FOR NORTHEAST MONTANA
NATIONAL WEATHER SERVICE GLASGOW MONTANA
200 AM MST FRI DEC 19 2014

NOTE: "FAIR" INDICATES FEW OR NO CLOUDS BELOW 12,000 FEET WITH NO
SIGNIFICANT WEATHER AND/OR OBSTRUCTIONS TO VISISBILITY.

NORTHEAST MONTANA


CITY           SKY/WX    TMP DP  RH WIND       PRES   REMARKS
GLASGOW        FOG       20  17  88 E3        29.91S VSB 1/2
PLENTYWOOD       N/A    N/A N/A N/A N3          N/A
WOLF POINT     CLOUDY    21  17  84 CALM      29.93S
JORDAN           N/A     27  24  89 W8        29.92R
WINNETT          N/A     27  25  92 SW1         N/A
SIDNEY         CLOUDY    23  19  86 CALM      29.94R
GLENDIVE       CLOUDY    28  25  86 S5        29.93R
MALTA            N/A     16  15  96 CALM        N/A

FORT PECK REPORTS


CITY           SKY/WX    TMP DP  RH WIND       PRES   REMARKS
FORT PECK        N/A     26  26 100 NW2         N/A
THE PINES        N/A     32  27  81 N3          N/A

SOUTHEAST MONTANA


CITY           SKY/WX    TMP DP  RH WIND       PRES   REMARKS
BILLINGS       PTCLDY    32  19  58 W21G28    29.95F
MILES CITY     CLEAR     24  21  88 S5        29.95S
BAKER          PTCLDY    30  23  75 SW14      29.93S
LIVINGSTON     CLOUDY    39  21  48 W20G30    29.95R

CENTRAL MONTANA


CITY           SKY/WX    TMP DP  RH WIND       PRES   REMARKS
HAVRE          PTCLDY    25  21  85 W3        29.89S
LEWISTOWN      MOCLDY    32  22  66 SW13      29.91S
GREAT FALLS    CLEAR     31  25  78 SW13      29.88F
CUT BANK       CLEAR     32  23  69 W13       29.85F
HELENA         MOCLDY    25  22  88 CALM      29.97F
BUTTE          PTCLDY    14  11  87 CALM      29.99S
BOZEMAN        CLOUDY    27  23  85 E3        30.00R

WESTERN MONTANA


CITY           SKY/WX    TMP DP  RH WIND       PRES   REMARKS
MISSOULA       MOCLDY    30  28  92 CALM      30.01S
KALISPELL      NOT AVBL

NORTH DAKOTA


CITY           SKY/WX    TMP DP  RH WIND       PRES   REMARKS
WILLISTON      FOG       25  24  96 CALM      29.92S VSB 1/4
DICKINSON      CLOUDY    30  25  81 SW9       29.89S
MINOT          CLOUDY    26  24  92 SE3       29.95R FOG
BISMARCK       CLEAR     18  15  88 SE5       29.98S

SOUTHERN SASKATCHEWAN


CITY           SKY/WX    TMP DP  RH WIND       PRES   REMARKS
REGINA         FOG       23  23 100 W3        29.90S VSB 1/4
ESTEVAN        LGT SNOW  25  23  93 W7        29.92R FOG
SWIFT CURRENT    N/A     16  14  93 SW8       29.85S VSB 1/4




USA.gov is the U.S. government's official web portal to all federal, state and local government web resources and services.